Waarnemingen

Advertentie
Mijn weer
Konstanz, Duitsland (10929): temperatuur & dauwpunt: 18.02.2017 09:00:00 - 24.02.2017 09:00:00 (CET)Konstanz, Duitsland (10929): temperatuur 5cm & temperatuur -5cm: 18.02.2017 09:00:00 - 24.02.2017 09:00:00 (CET)Konstanz, Duitsland (10929): temperatuur -20cm & temperatuur -100cm: 18.02.2017 09:00:00 - 24.02.2017 09:00:00 (CET)Konstanz, Duitsland (10929): windsnelheid & windstoten: 18.02.2017 09:00:00 - 24.02.2017 09:00:00 (CET)Konstanz, Duitsland (10929): windrichting: 18.02.2017 09:00:00 - 24.02.2017 09:00:00 (CET)Konstanz, Duitsland (10929): luchtdruk: 18.02.2017 09:00:00 - 24.02.2017 09:00:00 (CET)Konstanz, Duitsland (10929): zicht: 18.02.2017 09:00:00 - 24.02.2017 09:00:00 (CET)Konstanz, Duitsland (10929): Zonneschijnduur: 18.02.2017 09:00:00 - 24.02.2017 09:00:00 (CET)Konstanz, Duitsland (10929): neerslag: 18.02.2017 09:00:00 - 24.02.2017 09:00:00 (CET)
Datum & Tijd tt [°C] td [°C] tt 5cm [°C] tt -5cm [°C] tt -20cm [°C] tt -100cm [°C] ff [km/u] ff [kn] fx [km/u] fx [kn] dd ppp [hPa] vv [km] sd [min] rr [mm]
24.02.2017 09:00:00 5,7 0,2 5,5 5,1 6,2 6,0 15 8 29 16 WZW 1013,5 25 0 0,0
24.02.2017 08:00:00 5,7 0,5 5,2 5,1 6,3 6,0 19 10 36 19 WZW 1012,7 20 0 0,0
24.02.2017 07:00:00 5,8 1,2 4,7 5,2 6,5 6,0 21 11 43 23 WZW 1011,4 16 0 0,0
24.02.2017 06:00:00 5,9 1,3 5,4 5,4 6,6 6,0 19 11 35 19 WZW 1010,8 45 0 0,0
24.02.2017 05:00:00 6,1 1,2 5,7 5,6 6,8 6,0 20 11 44 24 WZW 1009,9 70 0 0,0
24.02.2017 04:00:00 6,5 1,3 6,0 6,0 6,9 5,9 27 15 66 35 WZW 1008,8 70 0 0,0
24.02.2017 03:00:00 7,3 1,2 6,9 6,5 7,0 5,9 29 16 59 32 WZW 1007,7 70 0 0,0
24.02.2017 02:00:00 8,7 3,7 8,1 6,9 7,0 5,9 31 17 72 39 WZW 1006,6 65 0 0,0
24.02.2017 01:00:00 9,8 4,6 8,9 7,1 7,1 5,9 31 17 68 37 WZW 1005,0 70 0 0,0
24.02.2017 00:00:00 10,7 4,7 10,0 7,3 7,1 5,9 30 16 65 35 WZW 1004,4 70 0 0,0
23.02.2017 23:00:00 11,7 4,2 10,8 7,4 7,2 5,9 37 20 66 36 WZW 1004,0 70 0 0,0
23.02.2017 22:00:00 12,8 3,2 11,9 7,5 7,2 5,9 36 19 62 34 WZW 1003,5 60 0 0,0
23.02.2017 21:00:00 13,3 1,8 12,2 7,4 7,3 5,9 20 11 42 23 WZW 1002,9 45 0 0,0
23.02.2017 20:00:00 14,3 -1,0 12,7 7,6 7,4 5,9 20 11 35 19 WZW 1002,2 45 0 0,0
23.02.2017 19:00:00 14,9 -1,3 12,9 7,8 7,5 5,9 17 9 61 33 WZW 1001,8 45 0 0,0
23.02.2017 18:00:00 16,9 -3,3 14,9 8,5 7,5 5,9 31 17 68 37 WZW 1000,6 82 28 0,0
23.02.2017 17:00:00 18,0 -4,0 15,9 9,3 7,4 5,9 35 19 74 40 ZW 1000,4 80 57 0,0
23.02.2017 16:00:00 19,0 -4,3 18,6 10,3 7,2 5,9 35 19 62 33 WZW 1001,2 82 55 0,0
23.02.2017 15:00:00 17,1 -1,7 15,8 9,5 6,9 5,8 24 13 60 32 ZW 1002,6 82 0 0,0
23.02.2017 14:00:00 17,6 -1,1 17,1 10,1 6,5 5,8 25 13 50 27 ZW 1004,2 82 29 0,0
23.02.2017 13:00:00 16,5 -1,4 16,8 9,2 6,2 5,8 32 18 50 27 ZW 1006,0 60 27 0,0
23.02.2017 12:00:00 12,4 2,6 12,6 8,4 5,8 5,8 9 5 30 16 ZZW 1008,2 45 25 0,0
23.02.2017 11:00:00 11,9 1,5 11,2 7,4 5,6 5,8 5 3 16 9 W 1009,1 45 50 0,0
23.02.2017 10:00:00 9,1 2,9 9,5 5,8 5,5 5,8 5 3 10 5 WZW 1010,5 45 60 0,0
23.02.2017 09:00:00 6,3 3,4 4,9 4,3 5,7 5,8 4 2 11 6 ZW 1011,8 45 60 0,0
23.02.2017 08:00:00 4,6 3,5 2,4 4,0 5,8 5,8 3 1 8 4 Z 1012,9 45 10 0,0
23.02.2017 07:00:00 4,9 3,5 2,1 4,5 6,0 5,7 4 2 16 9 WZW 1013,5 40 0 0,0
23.02.2017 06:00:00 6,0 3,6 5,0 4,8 6,1 5,7 9 5 18 10 WZW 1013,9 35 0 0,0
23.02.2017 05:00:00 6,3 3,7 5,1 5,0 6,2 5,7 8 4 37 20 WZW 1014,4 58 0 0,0
23.02.2017 04:00:00 7,0 3,9 6,0 5,2 6,4 5,7 26 14 38 20 ZW 1014,4 61 0 0,0
23.02.2017 03:00:00 6,7 3,8 5,4 5,3 6,5 5,7 16 9 26 14 ZW 1015,3 65 0 0,0
23.02.2017 02:00:00 6,6 3,8 5,3 5,7 6,7 5,7 12 6 27 15 WZW 1015,5 66 0 0,0
23.02.2017 01:00:00 7,0 4,0 6,3 6,0 6,8 5,7 16 9 30 16 WZW 1015,8 70 0 0,0
23.02.2017 00:00:00 7,7 4,0 6,9 6,3 6,9 5,7 19 10 34 19 ZW 1015,9 70 0 0,0
22.02.2017 23:00:00 8,0 3,8 7,4 6,5 7,0 5,6 21 11 35 19 ZW 1016,1 70 0 0,0
22.02.2017 22:00:00 8,2 3,6 7,8 6,6 7,1 5,6 16 8 30 16 WZW 1016,5 70 0 0,0
22.02.2017 21:00:00 8,4 3,6 7,7 6,8 7,3 5,6 17 9 28 15 WZW 1016,4 60 0 0,0
22.02.2017 20:00:00 8,7 3,7 8,0 7,1 7,4 5,6 17 9 38 20 ZW 1016,2 60 0 0,0
22.02.2017 19:00:00 8,7 4,0 7,9 7,4 7,5 5,6 14 7 33 18 ZW 1016,3 60 0 0,0
22.02.2017 18:00:00 9,3 3,7 8,4 8,1 7,6 5,6 23 13 41 22 WZW 1015,9 65 13 0,0
22.02.2017 17:00:00 10,0 4,0 9,5 8,7 7,6 5,6 21 12 41 22 WZW 1015,6 65 43 0,0
22.02.2017 16:00:00 10,8 4,0 11,1 9,1 7,5 5,6 23 12 44 24 WZW 1015,6 65 5 0,0
22.02.2017 15:00:00 10,6 4,4 10,8 9,2 7,3 5,6 21 11 47 25 WZW 1016,3 65 0 0,0
22.02.2017 14:00:00 10,9 4,3 11,5 9,5 7,1 5,5 29 16 51 27 WZW 1016,7 65 14 0,0
22.02.2017 13:00:00 10,7 4,1 11,3 9,1 7,0 5,5 25 14 44 24 WZW 1017,1 45 5 0,0
22.02.2017 12:00:00 10,6 4,1 11,3 8,5 6,8 5,5 24 13 46 25 WZW 1017,7 45 1 0,0
22.02.2017 11:00:00 10,1 4,6 10,2 8,1 6,7 5,5 21 11 49 26 WZW 1017,8 40 2 0,0
22.02.2017 10:00:00 10,1 5,5 10,5 7,7 6,6 5,5 21 12 40 22 ZW 1017,3 40 0 0,0
22.02.2017 09:00:00 9,4 6,3 9,2 7,2 6,6 5,5 16 9 30 16 ZW 1017,9 40 0 0,0
22.02.2017 08:00:00 9,3 6,5 8,9 7,1 6,6 5,5 18 10 35 19 ZW 1017,8 40 0 0,0
22.02.2017 07:00:00 9,2 6,8 8,7 7,1 6,6 5,5 15 8 32 18 ZW 1017,7 40 0 0,0
22.02.2017 06:00:00 9,3 7,0 8,8 7,2 6,6 5,5 19 11 32 17 ZW 1017,8 40 0 0,0
22.02.2017 05:00:00 9,4 7,3 8,9 7,2 6,6 5,5 14 8 22 12 ZW 1018,2 70 0 0,0
22.02.2017 04:00:00 9,4 7,4 8,9 7,3 6,6 5,4 10 5 27 14 WZW 1018,6 70 0 0,0
22.02.2017 03:00:00 9,9 7,1 9,2 7,3 6,6 5,4 16 9 30 16 ZW 1018,8 70 0 0,0
22.02.2017 02:00:00 10,0 7,5 9,5 7,3 6,6 5,4 15 8 29 16 WZW 1019,5 70 0 0,0
22.02.2017 01:00:00 10,0 7,6 9,4 7,3 6,6 5,4 14 7 23 13 WZW 1019,8 70 0 0,0
22.02.2017 00:00:00 9,8 7,6 9,4 7,3 6,6 5,4 11 6 27 14 WZW 1020,1 70 0 0,0
21.02.2017 23:00:00 9,8 7,7 9,3 7,3 6,6 5,4 16 8 32 17 WZW 1019,9 70 0 0,0
21.02.2017 22:00:00 10,0 7,7 8,9 7,3 6,6 5,4 16 9 32 18 WZW 1020,0 70 0 0,0
21.02.2017 21:00:00 9,6 8,1 8,4 7,4 6,6 5,4 14 8 29 16 WZW 1019,9 40 0 0,2
21.02.2017 20:00:00 10,0 8,0 8,8 7,5 6,6 5,4 15 8 29 15 ZW 1020,1 30 0 0,1
21.02.2017 19:00:00 10,2 7,5 9,6 7,6 6,5 5,4 16 9 32 17 WZW 1020,2 35 0 0,0
21.02.2017 18:00:00 10,3 7,7 9,3 7,8 6,5 5,4 18 10 35 19 WZW 1019,8 35 0 0,0
21.02.2017 17:00:00 10,3 7,8 10,0 7,8 6,4 5,4 21 11 36 20 ZW 1019,7 70 0 0,0
21.02.2017 16:00:00 10,3 7,6 10,1 7,7 6,2 5,3 19 10 35 19 ZW 1019,6 40 0 0,0
21.02.2017 15:00:00 10,0 7,6 9,9 7,6 6,1 5,3 17 9 31 17 ZW 1019,8 35 0 0,0
21.02.2017 14:00:00 9,6 7,4 9,6 7,5 6,0 5,3 18 10 37 20 ZW 1020,0 30 0 0,0
21.02.2017 13:00:00 9,5 7,0 9,6 7,3 5,8 5,3 20 11 35 19 ZW 1020,3 22 0 0,0
21.02.2017 12:00:00 8,6 6,4 8,4 6,6 5,7 5,3 15 8 34 18 WZW 1020,9 9 0 0,0
21.02.2017 11:00:00 8,2 6,0 8,1 6,5 5,7 5,3 16 9 36 20 WZW 1020,6 23 0 0,0
21.02.2017 10:00:00 7,6 6,0 6,9 6,1 5,6 5,3 18 10 37 20 ZW 1020,4 20 0 0,7
21.02.2017 09:00:00 8,2 5,1 7,7 5,9 5,6 5,3 21 12 41 22 ZW 1020,7 15 0 0,0
21.02.2017 08:00:00 8,3 4,8 7,8 5,9 5,6 5,3 18 10 47 26 ZW 1020,5 17 0 0,0
21.02.2017 07:00:00 8,1 5,0 7,6 5,9 5,6 5,3 28 15 49 26 ZW 1020,0 22 0 0,0
21.02.2017 06:00:00 7,8 5,5 7,0 5,9 5,6 5,3 17 9 39 21 ZW 1020,4 17 0 0,0
21.02.2017 05:00:00 7,6 5,7 7,2 5,9 5,6 5,3 24 13 47 26 ZW 1020,9 30 0 0,0
21.02.2017 04:00:00 7,3 5,8 6,8 5,8 5,6 5,2 16 9 45 24 ZW 1021,7 26 0 0,0
21.02.2017 03:00:00 7,2 5,8 6,5 5,7 5,6 5,2 24 13 42 23 ZW 1022,1 22 0 0,0
21.02.2017 02:00:00 6,8 5,7 6,2 5,7 5,7 5,2 13 7 27 15 ZW 1022,7 12 0 0,0
21.02.2017 01:00:00 6,5 5,8 5,9 5,7 5,7 5,2 10 5 16 9 ZW 1023,3 6 0 0,0
21.02.2017 00:00:00 6,5 5,6 5,8 5,7 5,8 5,2 7 4 20 11 ZW 1023,2 9 0 0,2
20.02.2017 23:00:00 6,6 5,5 5,8 5,8 5,8 5,2 12 6 25 14 ZW 1023,2 11 0 0,7
20.02.2017 22:00:00 7,0 5,0 5,9 5,9 5,9 5,2 15 8 26 14 ZW 1023,2 17 0 0,3
20.02.2017 21:00:00 7,7 3,8 7,2 6,0 6,0 5,2 13 7 26 14 ZW 1022,9 40 0 0,0
20.02.2017 20:00:00 7,7 3,8 7,0 6,1 6,1 5,2 11 6 20 11 ZW 1022,9 30 0 0,0
20.02.2017 19:00:00 7,9 3,4 7,1 6,4 6,2 5,2 10 5 19 11 WZW 1023,1 30 0 0,0
20.02.2017 18:00:00 8,3 3,2 7,5 7,0 6,2 5,2 13 7 23 12 WZW 1022,5 35 2 0,0
20.02.2017 17:00:00 8,7 3,0 8,3 7,6 6,1 5,2 11 6 22 12 WZW 1022,3 40 0 0,0
20.02.2017 16:00:00 9,3 2,7 9,3 8,2 5,9 5,2 11 6 22 12 WZW 1022,8 35 0 0,0
20.02.2017 15:00:00 9,3 2,3 9,8 8,2 5,6 5,2 13 7 26 14 WZW 1023,3 30 0 0,0
20.02.2017 14:00:00 9,1 2,1 9,5 8,2 5,3 5,2 14 7 26 14 WZW 1023,7 28 0 0,0
20.02.2017 13:00:00 8,9 1,9 9,7 8,2 4,9 5,2 16 9 27 15 WZW 1024,6 25 12 0,0
20.02.2017 12:00:00 10,3 2,2 12,7 7,7 4,5 5,2 21 11 34 18 ZW 1025,0 20 58 0,0
20.02.2017 11:00:00 7,7 1,1 8,8 5,8 4,3 5,2 18 10 33 18 ZW 1025,6 18 38 0,0
20.02.2017 10:00:00 6,4 1,2 6,6 4,3 4,2 5,2 18 10 31 17 ZW 1025,6 14 0 0,0
20.02.2017 09:00:00 5,7 1,1 5,4 3,8 4,2 5,2 14 7 22 12 ZW 1025,8 18 0 0,0
20.02.2017 08:00:00 5,7 1,3 5,2 3,7 4,3 5,1 17 9 25 13 WZW 1025,5 16 0 0,0
20.02.2017 07:00:00 5,5 1,3 5,0 3,7 4,3 5,1 14 8 25 13 WZW 1025,2 14 0 0,0
20.02.2017 06:00:00 5,7 1,3 5,0 3,7 4,3 5,1 13 7 23 12 WZW 1024,9 14 0 0,0
20.02.2017 05:00:00 4,8 1,4 3,9 3,7 4,4 5,1 7 4 13 7 WZW 1025,1 22 0 0,0
20.02.2017 04:00:00 5,1 1,4 4,1 3,8 4,4 5,1 5 3 16 8 W 1025,2 25 0 0,0
20.02.2017 03:00:00 5,5 1,2 4,8 3,9 4,5 5,1 8 4 15 8 W 1025,2 25 0 0,0
20.02.2017 02:00:00 5,6 1,3 4,7 3,9 4,6 5,1 6 3 14 7 WZW 1025,6 24 0 0,0
20.02.2017 01:00:00 5,3 1,6 4,4 3,9 4,6 5,1 8 5 13 7 WZW 1025,9 21 0 0,0
20.02.2017 00:00:00 4,3 2,0 3,1 3,9 4,7 5,1 5 3 9 5 WZW 1026,2 17 0 0,0
19.02.2017 23:00:00 4,5 2,7 3,4 4,0 4,9 5,1 5 3 8 5 W 1025,7 16 0 0,0
19.02.2017 22:00:00 3,7 2,5 3,1 4,1 5,0 5,1 4 2 9 5 O 1025,3 8 0 0,0
19.02.2017 21:00:00 3,8 2,6 2,9 4,4 5,1 5,1 4 2 7 4 OZO 1024,8 18 0 0,0
19.02.2017 20:00:00 3,9 2,5 2,6 4,8 5,3 5,1 4 2 11 6 ZO 1024,5 20 0 0,0
19.02.2017 19:00:00 3,9 2,9 3,4 5,4 5,3 5,1 7 4 9 5 O 1024,5 20 0 0,0
19.02.2017 18:00:00 3,9 2,5 3,3 6,1 5,3 5,1 6 3 9 5 ZO 1024,1 20 12 0,0
19.02.2017 17:00:00 4,5 2,2 4,4 7,0 5,1 5,1 5 3 10 6 OZO 1024,4 20 20 0,0
19.02.2017 16:00:00 6,4 2,0 7,8 8,0 4,7 5,1 5 3 9 5 ZO 1024,2 20 31 0,0
19.02.2017 15:00:00 6,8 1,7 7,6 8,2 4,2 5,1 6 3 13 7 ZW 1024,7 18 35 0,0
19.02.2017 14:00:00 5,2 0,8 8,9 7,8 3,6 5,1 4 2 11 6 OZO 1025,6 10 60 0,0
19.02.2017 13:00:00 3,5 -0,3 6,3 5,8 3,3 5,1 7 4 13 7 ZW 1026,5 11 54 0,0
19.02.2017 12:00:00 0,7 -0,1 2,6 3,3 3,1 5,1 5 3 10 5 W 1027,8 4,3 0 0,0
19.02.2017 11:00:00 -0,6 -0,7 0,7 2,4 3,1 5,0 6 3 11 6 WZW 1028,3 1,2 0 0,0
19.02.2017 10:00:00 -0,6 -0,6 -0,1 1,6 3,1 5,0 3 2 8 4 WZW 1028,1 0,2 0 0,0
19.02.2017 09:00:00 -0,7 -0,7 -0,4 1,3 3,2 5,0 4 2 8 4 W 1028,0 0,2 0 0,0
19.02.2017 08:00:00 -0,9 -0,9 -0,6 1,3 3,3 5,0 6 3 8 4 WZW 1027,8 0,3 0 0,0
19.02.2017 07:00:00 -1,2 -1,6 -1,0 1,3 3,4 5,0 5 3 6 4 WZW 1027,5 4,5 0 0,0
19.02.2017 06:00:00 -1,3 -1,5 -2,4 1,3 3,6 5,0 3 1 4 2 WZW 1027,6 6 0 0,0
19.02.2017 05:00:00 -1,0 -1,0 -2,7 1,3 3,7 5,0 1 1 6 3 N 1027,6 6 0 0,0
19.02.2017 04:00:00 -0,2 -0,5 -1,6 1,5 3,9 5,0 6 3 8 4 W 1027,6 7 0 0,0
19.02.2017 03:00:00 -0,6 -1,0 -2,8 1,5 4,1 5,0 6 3 7 4 WZW 1027,8 8 0 0,0
19.02.2017 02:00:00 -0,1 -0,9 -2,0 1,8 4,4 5,0 4 2 10 5 NW 1027,6 11 0 0,0
19.02.2017 01:00:00 0,9 -0,6 -1,1 2,1 4,7 5,0 8 4 11 6 WZW 1027,2 13 0 0,0
19.02.2017 00:00:00 1,1 0,0 -1,2 2,6 5,0 5,0 7 4 10 5 WZW 1027,3 11 0 0,0
18.02.2017 23:00:00 1,5 0,4 -1,5 3,1 5,3 4,9 6 4 8 4 WZW 1027,2 10 0 0,0
18.02.2017 22:00:00 2,6 0,8 -0,9 3,7 5,6 4,9 3 2 5 3 W 1026,9 11 0 0,0
18.02.2017 21:00:00 3,3 0,8 0,2 4,4 5,9 4,9 3 2 9 5 ONO 1026,7 14 0 0,0
18.02.2017 20:00:00 4,2 0,7 2,2 5,2 6,1 4,9 8 4 16 9 O 1026,6 18 0 0,0
18.02.2017 19:00:00 5,3 1,3 3,1 6,1 6,3 4,9 8 4 14 8 O 1026,3 25 0 0,0
18.02.2017 18:00:00 6,8 1,0 4,1 7,4 6,4 4,9 6 3 11 6 O 1025,7 35 45 0,0
18.02.2017 17:00:00 8,7 0,8 7,4 8,8 6,2 4,9 5 3 14 8 O 1024,9 35 60 0,0
18.02.2017 16:00:00 9,8 0,6 11,4 10,5 5,8 4,9 6 4 14 7 OZO 1024,7 26 60 0,0
18.02.2017 15:00:00 9,1 1,9 12,9 10,4 5,2 4,9 6 3 14 8 OZO 1025,1 26 60 0,0
18.02.2017 14:00:00 8,7 2,6 10,3 9,5 4,7 4,9 6 3 16 9 ZO 1025,6 18 59 0,0
18.02.2017 13:00:00 8,2 2,9 9,6 7,8 4,3 4,9 8 4 15 8 OZO 1026,4 8 51 0,0
18.02.2017 12:00:00 5,9 3,4 6,3 5,9 4,1 4,9 5 3 10 5 ONO 1027,6 8 14 0,0
18.02.2017 11:00:00 4,6 2,9 5,0 5,0 3,9 4,9 5 3 13 7 O 1028,1 7 1 0,0
18.02.2017 10:00:00 4,3 3,1 4,6 4,1 3,8 4,9 4 2 11 6 O 1028,2 6 0 0,0
18.02.2017 09:00:00 4,0 3,3 3,9 3,5 3,8 4,9 2 1 5 3 OZO 1028,5 1,8 0 0,0

tt = temperatuur
td = dauwpunt
tt 5cm = temperatuur 5cm
tt -5cm = temperatuur -5cm
tt -20cm = temperatuur -20cm
tt -100cm = temperatuur -100cm
ff = windsnelheid
fx = windstoten
dd = windrichting
ppp = luchtdruk
vv = zicht
sd = Zonneschijnduur
rr = neerslag

Weerstations in de omgeving